Home   Weather   Córdoba   Past weeks

Flag for Spain Past Weather in Córdoba, Spain — Yesterday and Last 2 Weeks

Now
57 °F

Clear.


Feels Like: 57 °F
Forecast: 51 / 62 °F
Wind: No wind

Location: Cordoba / Aeropuerto

Current Time: Apr 27, 2017 at 7:41:00 am

Latest Report: Apr 27, 2017 at 7:00 am


Visibility: 10 mi

Pressure: 29.80 "Hg

Humidity: 94%

Dew Point: 55 °F

Location of CórdobaLocation

Past Weather in Córdoba — Graph

°F

Córdoba Temperature Yesterday

Maximum temperature yesterday: 73 °F (at 4:00 pm)
Minimum temperature yesterday: 57 °F (at 6:30 am)
Average temperature yesterday: 64 °F

High & Low Weather Summary for the Past Weeks

 TemperatureHumidityPressure
High90 °F (Apr 18, 5:00 pm)100% (Apr 15, 8:30 am)30.18 "Hg (Apr 15, 8:30 am)
Low48 °F (Apr 12, 7:30 am)16% (Apr 18, 5:00 pm)29.77 "Hg (Apr 18, 6:30 pm)
Average67 °F58%30.00 "Hg
* Reported Apr 12 5:00 am — Apr 27 5:30 am, Córdoba, Weather by CustomWeather, © 2017

Note: Actual official high and low records may vary slightly from our data, if they occured in-between our weather recording intervals... More about our weather records

Advertising

Córdoba Weather History for the Previous 24 Hours

Scroll right to see more
 ConditionsComfort  
Time TempWeatherWind HumidityBarometerVisibility
5:30 am
Thu, Apr 27
57 °FPassing clouds.3 mph94%29.80 "HgN/A
4:30 am57 °FPassing clouds.5 mph88%29.80 "Hg6 mi
3:30 am59 °FPassing clouds.9 mph82%29.80 "HgN/A
3:00 am59 °FClear.7 mph77%29.80 "Hg10 mi
2:30 am59 °FPassing clouds.7 mph77%29.83 "HgN/A
2:00 am61 °FPassing clouds.7 mph72%29.83 "HgN/A
1:30 am61 °FPassing clouds.5 mph72%29.83 "HgN/A
1:00 am61 °FPassing clouds.7 mph72%29.83 "HgN/A
12:30 am63 °FClear.9 mph68%29.83 "Hg10 mi
12:00 am63 °FClear.9 mph68%29.83 "Hg10 mi
11:30 pm
Wed, Apr 26
64 °FPassing clouds.10 mph64%29.83 "HgN/A
11:00 pm64 °FPassing clouds.10 mph64%29.83 "HgN/A
10:30 pm66 °FPassing clouds.12 mph56%29.80 "HgN/A
10:00 pm66 °FPassing clouds.9 mph56%29.80 "HgN/A
9:30 pm68 °FPassing clouds.9 mph49%29.80 "HgN/A
9:00 pm68 °FPassing clouds.10 mph46%29.77 "HgN/A
8:30 pm70 °FPassing clouds.6 mph43%29.77 "HgN/A
8:00 pm70 °FPassing clouds.8 mph43%29.77 "HgN/A
7:30 pm70 °FSunny.9 mph43%29.77 "Hg10 mi
7:00 pm72 °FPassing clouds.10 mph38%29.77 "HgN/A
6:30 pm72 °FPassing clouds.13 mph36%29.77 "HgN/A
6:00 pm70 °FPassing clouds.12 mph40%29.77 "HgN/A
5:30 pm72 °FPassing clouds.13 mph36%29.77 "HgN/A
5:00 pm72 °FPassing clouds.12 mph36%29.77 "HgN/A
4:30 pm72 °FPassing clouds.12 mph36%29.80 "HgN/A
4:00 pm73 °FPassing clouds.12 mph36%29.80 "HgN/A
3:30 pm72 °FPassing clouds.10 mph41%29.80 "HgN/A
3:00 pm72 °FPassing clouds.10 mph44%29.80 "HgN/A
2:00 pm72 °FPassing clouds.9 mph47%29.83 "HgN/A
1:30 pm68 °FPassing clouds.8 mph56%29.83 "HgN/A
1:00 pm68 °FPassing clouds.10 mph60%29.83 "HgN/A
12:30 pm66 °FScattered clouds.9 mph64%29.83 "HgN/A
11:30 am66 °FScattered clouds.8 mph64%29.83 "HgN/A
11:00 am63 °FPartly sunny.7 mph68%29.83 "HgN/A
10:30 am63 °FScattered clouds.5 mph73%29.83 "HgN/A
10:00 am64 °FPassing clouds.1 mph64%29.83 "HgN/A
9:30 am61 °FPartly sunny.2 mph77%29.83 "HgN/A
9:00 am59 °FBroken clouds.3 mph88%29.83 "HgN/A
8:30 am59 °FMostly cloudy.No wind88%29.83 "HgN/A
8:00 am57 °FScattered clouds.1 mph88%29.83 "Hg6 mi
7:30 am57 °FOvercast.1 mph94%29.80 "Hg6 mi
7:00 am57 °FPassing clouds.1 mph88%29.80 "Hg6 mi
Weather by CustomWeather, © 2017

See weather overviewHow to use our weather pages